CW2074 Weather Reports


Display with metric or nautical units.
time (UTC)temp
F
wind
direction
speed
MPH
gust
MPH
rain 1hr
in
rain 24hr
in
rain mn
in
humidity
%
barometer
mb
20170623201854 88 251 2.0 6.0 0.00 0.07 0.05 68 1011.4
20170623200316 87 194 1.0 6.0 0.00 0.07 0.05 71 1011.6
20170623194706 87 267 2.0 7.0 0.01 0.08 0.05 72 1011.7
20170623192916 87 259 1.0 9.0 0.01 0.08 0.05 70 1012.0
20170623191250 87 257 2.0 8.0 0.01 0.08 0.05 69 1012.4
20170623185630 87 267 2.0 8.0 0.00 0.07 0.04 69 1012.6
20170623184008 87 267 2.0 6.0 0.00 0.07 0.04 71 1012.7
20170623182402 86 150 3.0 8.0 0.00 0.07 0.04 72 1013.0
20170623180753 86 258 1.0 6.0 0.00 0.07 0.04 74 1013.2
20170623175148 85 254 1.0 7.0 0.00 0.07 0.04 74 1013.5
20170623173548 85 247 1.0 4.0 0.01 0.07 0.04 76 1013.7
20170623172043 85 248 3.0 7.0 0.01 0.07 0.04 73 1013.7
20170623170403 85 239 1.0 7.0 0.01 0.07 0.04 77 1013.9
20170623164806 85 252 2.0 8.0 0.01 0.07 0.04 75 1014.1
20170623163134 84 336 1.0 6.0 0.00 0.06 0.03 77 1014.2
20170623161520 84 284 3.0 10.0 0.00 0.06 0.03 76 1014.5
20170623160014 84 263 1.0 8.0 0.00 0.06 0.03 79 1014.5
20170623154321 83 254 1.0 5.0 0.00 0.06 0.03 78 1014.6
20170623152607 82 185 2.0 6.0 0.00 0.06 0.03 80 1014.7
20170623151027 82 192 1.0 5.0 0.00 0.06 0.03 81 1014.6
20170623145248 81 242 1.0 6.0 0.00 0.06 0.03 84 1014.5
20170623143636 80 319 1.0 6.0 0.00 0.06 0.03 85 1014.5
20170623142022 79 267 2.0 8.0 0.00 0.06 0.03 87 1014.5
20170623140359 78 275 1.0 7.0 0.01 0.06 0.03 90 1014.6
20170623134723 77 276 1.0 3.0 0.01 0.07 0.03 91 1014.8
20170623133045 76 208 0.0 5.0 0.01 0.07 0.03 91 1014.9
20170623131433 75 268 1.0 3.0 0.01 0.07 0.03 90 1014.8
20170623125757 75 229 0.0 4.0 0.00 0.06 0.02 90 1014.7
20170623124117 74 208 0.0 2.0 0.00 0.06 0.02 90 1014.9
20170623122510 74 217 0.0 2.0 0.00 0.06 0.02 90 1014.8
20170623120845 73 228 0.0 2.0 0.00 0.06 0.02 90 1014.7
20170623115135 73 252 0.0 3.0 0.00 0.06 0.02 90 1014.7
20170623113525 73 286 0.0 4.0 0.00 0.06 0.02 90 1014.7
20170623112326 73 241 0.0 2.0 0.00 0.06 0.02 90 1014.7
20170623111542 72 269 0.0 3.0 0.00 0.06 0.02 90 1014.6
20170623110806 72 220 0.0 1.0 0.00 0.07 0.02 90 1014.6
20170623110101 72 253 0.0 2.0 0.01 0.07 0.02 90 1014.4
20170623105502 72 265 0.0 2.0 0.01 0.07 0.02 90 1014.3
20170623104704 72 266 0.0 3.0 0.01 0.07 0.02 90 1014.4
20170623104047 72 262 0.0 2.0 0.00 0.06 0.01 90 1014.4
20170623103349 72 250 0.0 2.0 0.00 0.06 0.01 90 1014.3
20170623102627 72 242 0.0 3.0 0.00 0.06 0.01 89 1014.3
20170623101825 72 251 0.0 2.0 0.00 0.06 0.01 90 1014.2
20170623101049 72 257 0.0 2.0 0.00 0.06 0.01 89 1014.3
20170623100410 72 257 0.0 1.0 0.00 0.06 0.01 90 1014.5
20170623095615 71 257 0.0 1.0 0.00 0.06 0.01 90 1014.5
20170623094812 71 257 0.0 0.0 0.00 0.06 0.01 89 1014.6
20170623093919 71 257 0.0 1.0 0.00 0.06 0.01 90 1014.8
20170623093118 71 257 0.0 0.0 0.01 0.06 0.01 89 1014.7
20170623092207 71 257 0.0 0.0 0.01 0.07 0.01 89 1014.8
20170623091311 71 257 0.0 0.0 0.01 0.07 0.01 90 1014.9
20170623090417 72 257 0.0 0.0 0.01 0.07 0.01 90 1015.0
20170623085543 72 257 0.0 0.0 0.00 0.06 0.00 90 1015.0
20170623084727 72 257 0.0 0.0 0.00 0.06 0.00 89 1015.3
20170623083749 72 257 0.0 0.0 0.00 0.06 0.00 89 1015.3
20170623082852 72 257 0.0 0.0 0.00 0.06 0.00 89 1015.5
20170623082005 72 257 0.0 1.0 0.00 0.06 0.00 89 1015.5
20170623081028 72 257 0.0 1.0 0.00 0.06 0.00 90 1015.7
20170623080146 72 254 0.0 1.0 0.00 0.06 0.00 90 1015.5
20170623075259 72 257 0.0 1.0 0.00 0.06 0.00 90 1015.7
20170623074554 72 257 0.0 0.0 0.01 0.07 0.06 90 1015.5
20170623073611 72 257 0.0 0.0 0.01 0.07 0.06 90 1015.6
20170623072543 73 257 0.0 0.0 0.01 0.07 0.06 90 1015.7
20170623071452 73 257 0.0 0.0 0.01 0.07 0.06 90 1015.7
20170623070525 73 257 0.0 1.0 0.00 0.06 0.05 90 1015.6
20170623065541 73 257 0.0 3.0 0.00 0.06 0.05 90 1015.6
20170623064323 73 20 0.0 1.0 0.00 0.06 0.05 90 1015.2
20170623063127 73 20 0.0 4.0 0.00 0.06 0.05 91 1015.9
20170623062001 74 273 0.0 3.0 0.00 0.06 0.05 91 1015.5
20170623060554 76 166 0.0 4.0 0.00 0.06 0.05 91 1015.2
20170623055331 77 118 0.0 0.0 0.00 0.06 0.05 91 1015.1
20170623054013 77 118 0.0 1.0 0.00 0.07 0.05 91 1015.0
20170623031053 78 118 0.0 1.0 0.00 0.07 0.05 91 1014.7
20170623002218 78 88 0.0 1.0 0.00 0.07 0.05 91 1014.8
20170623000611 79 88 0.0 0.0 0.00 0.07 0.05 91 1014.9
20170622234954 79 88 0.0 1.0 0.01 0.07 0.05 91 1014.6
20170622233344 79 92 0.0 1.0 0.01 0.07 0.05 91 1014.5
20170622231619 80 150 0.0 1.0 0.01 0.07 0.05 91 1014.5
20170622230023 80 150 0.0 1.0 0.01 0.07 0.05 91 1014.6
20170622224354 80 171 0.0 0.0 0.00 0.06 0.04 90 1014.5
20170622222724 81 171 0.0 1.0 0.00 0.06 0.04 90 1014.5
20170622221123 81 182 0.0 1.0 0.00 0.06 0.04 88 1014.6
20170622215411 82 126 0.0 1.0 0.00 0.07 0.04 88 1014.7
20170622213756 82 80 0.0 2.0 0.00 0.07 0.04 87 1014.9
20170622212155 82 69 0.0 2.0 0.00 0.07 0.04 86 1014.8
20170622210542 82 22 0.0 1.0 0.00 0.07 0.04 85 1014.9
20170622204928 82 74 0.0 2.0 0.00 0.07 0.04 85 1015.0